Погода в Улленсакере

Норвегия     60°05′02″N   11°09′49″E
В апреле 2022 года жителям России запретили посещать сайт meteo.paraplan.net по решению Генеральной прокуратуры. Аудитория сайта уменьшилась в 10 раз. Владельцы сайта не видят смысла в поддержке погодного сервера в таких условиях. Сайт будет закрыт в октябре.
темп.,
°C
ветер,
м/с
пор.,
м/с
влажн.,
%
обл.,
%
осадки,
мм/ч
давл.,
гПа
погр.,
м
3 октября, пн
пн323:00+8юз119386 0.0 101111
02:00+6юз11955 0.0 101210
05:00+5зюз11955 0.0 101310
08:00+5зсз11964 0.0 101510
11:00+9с24784 0.0 1017369
14:00+12ссв23655 0.0 1017807
17:00+13с12670 0.0 1017220
20:00+8ююз11855 0.0 101810
4 октября, вт
вт423:00+7ююз11915 0.0 101810
02:00+6ююз119440 0.0 101710
05:00+5ю119571 0.0 101511
08:00+5ююв129688 0.0 101425
11:00+10ю2779100 0.0 1012521
14:00+13ююз497068 0.0 1009810
17:00+13ююз51280100 0.0 10071037
20:00+12ююз51393100 0.0 1006763
5 октября, ср
ср523:00+12ююз51395100 1.6 1003891
02:00+13ююз51196100 1.7 1002655
05:00+11ююз3996100 0.0 1001319
08:00+11ююз2497100 0.0 1003188
11:00+12ю1389100 0.0 1003441
14:00+13ю41089100 0.1 1001735
17:00+13ююв51593100 2.4 9961247
20:00+14ю82090100 3.9 9921464
6 октября, чт
чт623:00+12юз8157910 0.6 9921223
02:00+9юз714700 0.6 9971034
05:00+8ююз820735 0.0 9971486
08:00+9юз6156999 0.0 9991520
11:00+11юз6135931 0.0 10021766
14:00+13юз817588 0.0 10031835
17:00+11юз718585 0.0 10041696
20:00+9зюз717631 0.0 10061336
7 октября, пт
пт723:00+8юз616675 0.0 10081296
02:00+8юз513685 0.0 1009811
05:00+8ююз614745 0.0 1008819
08:00+11ююз81885100 0.0 10031608
11:00+13ююз71682100 0.1 10011633
14:00+13ююз71675100 0.4 10001640
17:00+12ююз81376100 0.3 998991
20:00+11юз61272100 0.3 998896